www.pogodaiklimat.ru

Погода и климат >> Архив погоды >> Алжир >> Ин-Аменас


ПОГОДА в Ин-Аменасе

  • Прогноз погоды в Ин-Аменасе
  • Монитор погоды в Ин-Аменасе

АРХИВ ПОГОДЫ в Ин-Аменасе

Время (UTC), дата Ветер
(напр.,м/с)
 
Видим.   Явления Облачность Т
(С)
Тd
(С)
f
(%)
Тe
(С)
Тes
(С)
Комфортность P
(гПа)
Po
(гПа)
Тmin
(С)
Tmax
(С)
R
(мм)
R24
(мм)
S
(см)
03 12.09 СВ 7 7000 м 8/4 1000 м
[Cu Sc Ac trans]
+28.0 +14.6 44 +30 +30 жарко 1012.7 950.1
06 12.09 СВ 10 7000 м пыльный позёмок 8/3 1200 м
[Cu med, cong Ac trans]
+28.9 +11.0 33 +29 +29 жарко 1014.5 952.0 +27.9 0.0
09 12.09 В 8 3000 м пыльный позёмок 9/3 1200 м
[Cu med, cong Ac trans]
+34.4 +7.5 19 +33 +33 жарко 1016.5 955.0
12 12.09 В 7 8000 м 5/0 2000 м
[Ac trans Ci sp]
+39.8 +5.3 12 +37 +40 очень
жарко
1014.1 953.7
15 12.09 ЮВ 4 8000 м 5/0 2000 м
[Ac trans Ci sp]
+40.4 +4.3 11 +37 +41 очень
жарко
1012.8 952.6
18 12.09 СВ 3 10 км 4/0
[Ci sp]
+37.8 +5.2 13 +35 +35 очень
жарко
1013.3 952.6 +41.1
21 12.09 СВ 8 10 км ясно +33.7 +6.9 19 +32 +32 жарко 1014.6 953.0
00 13.09 СВ 5 10 км ясно +29.0 +5.8 23 +28 +28 жарко 1015.2 952.7
03 13.09 В 7 10 км ясно +28.6 +7.2 26 +28 +28 жарко 1015.6 953.0
06 13.09 СВ 7 10 км ясно +27.6 +7.5 28 +27 +27 жарко 1017.7 954.7 +27.1
09 13.09 В 10 7000 м пыльный позёмок 1/0
[Ac trans]
+35.0 +9.4 21 +34 +34 очень
жарко
1017.6 956.1
12 13.09 ЮВ 7 8000 м ясно +38.9 +7.6 15 +37 +41 очень
жарко
1016.1 955.4
15 13.09 ЮВ 4 10 км ясно +39.8 +6.2 13 +37 +42 очень
жарко
1014.4 954.0
18 13.09 СВ 5 10 км ясно +37.0 +6.5 15 +34 +34 очень
жарко
1015.2 954.2 +40.1
21 13.09 В 4 10 км ясно +32.6 +5.2 18 +30 +30 жарко 1016.6 954.7
00 14.09 В 8 10 км ясно +29.9 +7.8 25 +29 +29 жарко 1016.5 954.1
03 14.09 В 6 10 км ясно +27.4 +11.8 38 +29 +29 жарко 1016.5 953.6
06 14.09 В 4 10 км ясно +26.1 +12.6 43 +28 +28 жарко 1017.0 953.8 +25.7
09 14.09 ЮВ 7 10 км ясно +32.8 +12.3 29 +33 +37 жарко 1018.1 956.2
12 14.09 В 4 10 км ясно +35.9 +10.3 21 +35 +46 очень
жарко
1016.4 955.2
15 14.09 СВ 7 10 км ясно +36.7 +8.7 18 +35 +37 очень
жарко
1014.4 953.4
18 14.09 В 6 10 км ясно +34.4 +8.9 21 +33 +33 жарко 1015.0 953.6 +37.1
21 14.09 В 7 10 км ясно +30.5 +8.3 25 +30 +30 жарко 1016.8 954.5
00 15.09 В 6 10 км ясно +25.8 +4.3 25 +25 +25 комфорт 1016.6 953.3
03 15.09 СВ 4 10 км ясно +22.3 +5.3 33 +23 +23 комфорт 1016.0 952.1
06 15.09 В 5 10 км ясно +21.6 +8.5 43 +23 +23 комфорт 1018.0 953.8 +20.7
09 15.09 В 7 10 км ясно +28.2 +9.6 31 +28 +31 жарко 1018.7 955.8
12 15.09 В 7 10 км ясно +31.3 +7.2 22 +30 +34 жарко 1016.7 954.5
15 15.09 В 4 10 км 5/0
[Ci]
+32.5 +3.6 16 +30 +33 жарко 1015.7 953.8
18 15.09 В 6 10 км 3/0
[Ci sp]
+29.8 +2.9 18 +28 +28 жарко 1015.2 952.8 +32.7
21 15.09 В 4 10 км ясно +25.5 +5.1 27 +25 +25 комфорт 1017.2 953.8
00 16.09 СВ 3 10 км ясно +21.7 +3.4 30 +22 +22 комфорт 1017.1 953.0
03 16.09 СВ 4 10 км ясно +19.6 +4.9 38 +20 +20 1017.0 952.4
06 16.09 СВ 4 10 км ясно +19.8 +7.2 44 +21 +21 комфорт 1017.8 953.2 +18.9
09 16.09 В 8 10 км ясно +28.6 +7.2 26 +28 +30 жарко 1017.5 954.8
12 16.09 В 5 10 км ясно +31.0 +4.7 19 +29 +39 жарко 1015.9 953.7
15 16.09 В 6 10 км ясно +32.2 +4.1 17 +30 +32 жарко 1014.2 952.4
18 16.09 В 4 10 км ясно +30.0 +4.8 20 +28 +28 жарко 1015.0 952.7 +32.9
21 16.09 В 4 10 км ясно +25.6 +4.6 26 +25 +25 комфорт 1015.7 952.5
00 17.09 СВ 3 10 км ясно +22.2 +3.8 30 +22 +22 комфорт 1015.4 951.5
03 17.09 СВ 3 10 км ясно +19.9 +4.2 36 +21 +21 комфорт 1014.8 950.4
06 17.09 СВ 4 10 км ясно +19.6 +4.5 37 +20 +20 1016.2 951.7 +18.4
09 17.09 ЮВ 6 10 км ясно +29.4 +6.1 23 +28 +33 жарко 1016.0 953.5
12 17.09 В 6 10 км ясно +32.6 +3.5 16 +30 +37 жарко 1013.8 952.1
15 17.09 В 4 10 км ясно +33.8 +1.6 13 +31 +35 жарко 1011.7 950.3
18 17.09 В 3 10 км ясно +31.2 +0.6 14 +28 +28 жарко 1014.0 952.0 +34.2
21 17.09 В 4 10 км ясно +26.5 +1.7 20 +25 +25 комфорт 1014.3 951.3
00 18.09 В 4 10 км ясно +23.8 +1.4 23 +23 +23 комфорт 1014.1 950.6
03 18.09 СВ 4 10 км ясно +20.3 +0.2 26 +21 +21 комфорт 1013.9 949.7
06 18.09 СВ 3 10 км ясно +20.1 +1.5 29 +21 +21 комфорт 1015.7 951.3 +19.1
09 18.09 ЮВ 4 10 км ясно +29.5 +3.4 19 +27 +36 жарко 1016.7 954.2
12 18.09 ЮВ 5 10 км ясно +33.7 +3.5 15 +31 +39 жарко 1015.2 953.6
15 18.09 В 2 10 км ясно +34.6 +2.1 13 +31 +37 жарко 1014.1 952.7
18 18.09 В 3 10 км ясно +32.3 +2.4 15 +29 +29 жарко 1013.4 951.6 +35.3
21 18.09 В 2 10 км ясно +27.2 +0.8 18 +25 +25 комфорт 1015.5 952.6
00 19.09 СВ 2 10 км ясно +23.1 -0.4 21 +22 +22 комфорт 1016.3 952.5

 

Местоположение метеостанции Ин-Аменас (Алжир): широта 28.05 долгота 9.63 высота над уровнем моря 562 м.

В архиве по умолчанию представлена погода в Ин-Аменасе за последнюю неделю. Архивные данные за месяц целиком и за предыдущие месяцы, начиная с января 2011 года, Вы можете получить, выбрав интересующий диапазон дат из раскрывающегося списка и нажав кнопку "Ввод!".


*Определитесь, кто Вы:
робот инопланетянин человек

Внимание! Время в таблицах - всемирное. Для получения местного времени необходимо прибавить поправку, которая равна 1 ч.

Смотрите также архив погоды в соседних городах и на ближайших метеорологических станциях:

Погода в Tin Fouye (Алжир) (208 км)
Погода в Иллизи (Алжир) (210 км)
Погода в Гадамесе (Ливия) (232 км)
Погода в Fadnoune (Алжир) (287 км)
Погода в Роуд-Ноусс (Алжир) (340 км)
Погода в Эль-Хамаде (Ливия) (361 км)
Погода в Bordj Haous (Алжир) (381 км)
Погода в Tinalkoum (Алжир) (388 км)
Погода в Эль Борма (Тунис) (406 км)
Погода в Djanet (Алжир) (421 км)

Пояснения к столбцам:

Ветер - указаны скорость ветра в м/с - средняя за 10 мин, порывы в срок и между сроками (в фигурных скобках) и направление, откуда дует ветер: С - северный, СВ - северо-восточный, В - восточный, ЮВ - юго-восточный, Ю - южный, ЮЗ - юго-западный, З - западный, СЗ - северо-западный.
Видимость - горизонтальная дальность видимости в метрах или километрах. При видимости от 1 до 10 км при отсутствии осадков обычно наблюдается дымка, при ухудшении видимости до 1 км и менее - туман. В сухую погоду видимость может ухудшаться дымом, пылью или мглою.
Явления - указаны атмосферные явления, наблюдавшиеся в срок или в последний час перед сроком; фигурными скобками обозначены явления, наблюдавшиеся между сроками (за 1-3 часа до срока); квадратными скобками обозначены град или гололедные отложения с указанием их диаметра в мм.
Облачность - указаны через наклонную черту общая и нижняя облачность в баллах и высота нижней границы облаков в метрах; квадратными скобками обозначены формы облаков: Ci - перистые, Cs - перисто-слоистые, Cc - перисто-кучевые, Ac - высококучевые, As - высокослоистые, Sc - слоисто-кучевые, Ns - слоисто-дождевые, Cu - кучевые, Cb - кучево-дождевые. Подробнее классификацию облаков см. в Атласе облаков (PDF).
T - Температура воздуха - температура, измеренная на высоте 2 м над землей.
Td - Температура точки росы - температура, при понижении до которой содержащийся в воздухе водяной пар достигнет насыщения.
f - Относительная влажность воздуха - влажноcть воздуха, измеренная на высоте 2 м над землей.
Te - Эффективная температура - температура, которую ощущает одетый по сезону человек в тени. Характеристика душности погоды. При расчете учитывается влияние влажности воздуха и скорости ветра на теплоощущения человека.
Tes - Эффективная температура на солнце - температура, которую ощущает человек, с поправкой на солнечный нагрев. Характеристика знойности погоды. Зависит от высоты солнца над горизонтом, облачности и скорости ветра. Ночью, в пасмурную погоду, а также при ветре 12 м/с и более поправка равна нулю.
P - Атмосферное давление - приведенное к уровню моря атмосферное давление.
Po - Атмосферное давление - измеренное на уровне метеостанции атмосферное давление.
Tmin - Минимальная температура - минимум температуры воздуха на высоте 2 м над землей.
Tmax - Максимальная температура - максимум температуры воздуха на высоте 2 м над землей.
R - Количество осадков - Количество выпавших осадков за период времени, мм. При наведении курсора мыши на число - период времени, за который выпало указанное количество осадков.
R24 - Количество осадков - Количество выпавших осадков за 24 часа, мм.
S - Снежный покров - Высота снежного покрова, см. При наведении курсора мыши на число - состояние снежного покрова и степень покрытия местности в баллах.